Cloud_Cover
19 0 1 41 0 4 5 5 28 56 11 5 5 5 5 5 2 4 3 0 3 54 93 0 0 0 0 0 0 0 45 21
37 13 0 0 0 8 0 5 5 5 89 100 77 12 83 42 5 6 19 3 7 99 82 5 3 0 0 0 0 10 73 81
57 24 13 3 4 5 53 26 3 59 53 60 99 99 100 87 5 13 5 100 69 38 100 5 5 9 0 0 11 21 92 75
16 16 2 24 9 23 7 4 0 4 6 91 91 99 100 100 9 25 51 72 100 94 99 24 67 4 9 47 1 52 25 96
17 36 20 6 0 10 19 0 39 10 24 94 100 100 100 100 61 82 72 15 5 21 96 100 96 52 18 14 29 9 39 92
63 13 29 11 0 0 1 9 71 25 9 33 37 71 99 100 87 82 100 62 74 27 57 100 100 96 10 18 7 6 34 76
79 6 20 22 11 0 0 2 45 100 100 98 90 31 53 68 93 98 100 96 94 96 99 100 100 100 100 6 3 7 6 20
100 99 64 28 6 29 2 0 2 51 97 99 91 14 36 18 84 95 100 72 100 99 70 100 100 100 100 69 5 12 12 23
96 100 100 100 100 100 98 60 0 0 30 100 100 46 37 99 56 100 100 100 99 93 98 90 100 100 100 100 11 5 1 68
48 100 100 100 95 62 100 17 5 0 27 21 100 99 37 100 100 100 100 100 100 100 93 100 100 100 100 100 62 54 59 43
88 99 52 100 100 12 48 5 65 4 4 0 35 100 93 71 100 100 91 98 100 100 100 100 100 100 99 100 98 90 54 40
100 100 78 95 28 31 3 5 12 3 9 0 0 90 100 100 100 100 100 100 100 100 97 100 100 100 100 100 100 98 88 91
100 87 47 100 19 5 0 0 5 0 6 0 0 84 100 100 60 88 100 100 100 100 98 100 100 100 100 70 60 69 97 56
20 11 24 20 34 5 0 0 3 2 0 0 0 2 76 100 85 100 100 100 100 100 100 100 100 100 99 91 100 99 84 67
5 13 26 26 72 89 20 0 2 7 2 3 5 44 44 92 91 61 54 22 91 100 100 100 100 98 97 100 100 100 11 40
58 28 64 98 94 100 86 99 95 26 8 5 26 21 5 64 92 48 42 100 31 100 100 100 100 100 100 100 81 72 19 92
100 100 100 100 100 92 100 100 100 100 98 85 100 100 75 97 100 42 55 100 98 100 100 100 100 100 100 100 100 92 100 100
100 100 100 100 100 100 100 100 100 100 99 100 100 100 100 100 100 100 100 100 100 100 100 100 100 100 100 100 94 100 100 97
100 100 100 100 100 100 100 100 100 100 90 100 100 100 100 100 100 100 100 100 100 100 100 100 98 100 100 100 100 96 74 100
100 100 100 100 100 100 100 100 100 100 100 100 100 100 100 100 100 100 100 100 100 100 100 100 100 100 100 100 100 72 84 69